Time,TemperatureF,DewpointF,PressureIn,WindDirection,WindDirectionDegrees,WindSpeedMPH,WindSpeedGustMPH,Humidity,HourlyPrecipIn,Conditions,Clouds,dailyrainin,SolarRadiationWatts/m^2,SoftwareType,DateUTC
2013-04-10 07:20:00,41.5,33.1,29.98,South,184,5.0,5.0,72,0.00,,,0.00,244,Wunderground v.1.15,2013-04-10 14:20:00,
2013-04-10 07:30:00,43.0,32.8,29.98,South,180,4.0,4.0,67,0.00,,,0.00,279,Wunderground v.1.15,2013-04-10 14:30:00,
2013-04-10 07:40:00,44.4,31.8,29.99,South,187,4.0,5.0,61,0.00,,,0.00,316,Wunderground v.1.15,2013-04-10 14:40:00,
2013-04-10 07:50:00,45.6,31.7,29.99,SSW,193,2.0,2.0,58,0.00,,,0.00,357,Wunderground v.1.15,2013-04-10 14:50:00,
2013-04-10 08:00:00,46.9,32.0,29.99,SSE,157,0.0,0.0,56,0.00,,,0.00,394,Wunderground v.1.15,2013-04-10 15:00:00,
2013-04-10 08:10:00,48.1,32.2,29.99,SSE,151,0.0,0.0,54,0.00,,,0.00,431,Wunderground v.1.15,2013-04-10 15:10:00,
2013-04-10 08:20:00,49.2,31.8,29.99,ESE,113,0.0,0.0,51,0.00,,,0.00,469,Wunderground v.1.15,2013-04-10 15:20:00,
2013-04-10 08:29:00,50.3,30.8,29.99,South,182,1.0,1.0,47,0.00,,,0.00,501,Wunderground v.1.15,2013-04-10 15:29:00,
2013-04-10 08:39:00,51.6,29.2,29.99,SE,144,1.0,1.0,42,0.00,,,0.00,538,Wunderground v.1.15,2013-04-10 15:39:00,
2013-04-10 08:49:00,52.8,29.7,29.99,SE,135,0.0,0.0,41,0.00,,,0.00,573,Wunderground v.1.15,2013-04-10 15:49:00,
2013-04-10 09:00:00,53.8,27.4,29.99,SSE,149,1.0,1.0,36,0.00,,,0.00,610,Wunderground v.1.15,2013-04-10 16:00:00,
2013-04-10 09:09:00,54.6,26.0,29.99,ESE,116,1.0,9.0,33,0.00,,,0.00,640,Wunderground v.1.15,2013-04-10 16:09:00,
2013-04-10 09:20:00,54.8,24.7,29.99,SE,133,2.0,2.0,31,0.00,,,0.00,670,Wunderground v.1.15,2013-04-10 16:20:00,
2013-04-10 09:30:00,55.7,26.3,29.98,SSE,150,1.0,9.0,32,0.00,,,0.00,698,Wunderground v.1.15,2013-04-10 16:30:00,
2013-04-10 09:40:00,56.6,26.3,29.99,East,86,0.0,9.0,31,0.00,,,0.00,728,Wunderground v.1.15,2013-04-10 16:40:00,
2013-04-10 09:50:00,57.1,25.1,29.99,North,360,0.0,9.0,29,0.00,,,0.00,752,Wunderground v.1.15,2013-04-10 16:50:00,
2013-04-10 09:59:00,57.6,25.5,29.99,South,172,2.0,2.0,29,0.00,,,0.00,788,Wunderground v.1.15,2013-04-10 16:59:00,
2013-04-10 10:09:00,58.2,25.2,29.98,NW,317,2.0,2.0,28,0.00,,,0.00,817,Wunderground v.1.15,2013-04-10 17:09:00,
2013-04-10 10:20:00,57.2,24.3,29.98,North,5,5.0,9.0,28,0.00,,,0.00,911,Wunderground v.1.15,2013-04-10 17:20:00,
2013-04-10 10:29:00,57.3,23.6,29.98,NNW,348,5.0,11.0,27,0.00,,,0.00,979,Wunderground v.1.15,2013-04-10 17:29:00,
2013-04-10 10:39:00,57.9,23.2,29.98,West,267,2.0,9.0,26,0.00,,,0.00,969,Wunderground v.1.15,2013-04-10 17:39:00,
2013-04-10 10:50:00,59.2,23.4,29.98,SE,129,1.0,1.0,25,0.00,,,0.00,1065,Wunderground v.1.15,2013-04-10 17:50:00,
2013-04-10 10:59:00,58.6,22.8,29.98,WNW,294,5.0,9.0,25,0.00,,,0.00,1013,Wunderground v.1.15,2013-04-10 17:59:00,
2013-04-10 11:09:00,58.6,21.9,29.98,WNW,292,3.0,3.0,24,0.00,,,0.00,1118,Wunderground v.1.15,2013-04-10 18:09:00,
2013-04-10 11:19:00,60.0,22.0,29.97,WNW,290,3.0,3.0,23,0.00,,,0.00,1164,Wunderground v.1.15,2013-04-10 18:19:00,
2013-04-10 11:29:00,59.7,22.8,29.97,WSW,244,2.0,9.0,24,0.00,,,0.00,1169,Wunderground v.1.15,2013-04-10 18:29:00,
2013-04-10 11:39:00,59.5,21.6,29.97,NNW,348,3.0,3.0,23,0.00,,,0.00,403,Wunderground v.1.15,2013-04-10 18:39:00,
2013-04-10 11:49:00,59.5,21.6,29.96,WNW,303,1.0,1.0,23,0.00,,,0.00,513,Wunderground v.1.15,2013-04-10 18:49:00,
2013-04-10 11:59:00,60.3,22.3,29.96,SSE,159,2.0,2.0,23,0.00,,,0.00,425,Wunderground v.1.15,2013-04-10 18:59:00,
2013-04-10 12:09:00,60.7,20.5,29.96,West,263,2.0,11.0,21,0.00,,,0.00,1157,Wunderground v.1.15,2013-04-10 19:09:00,
2013-04-10 12:19:00,61.2,19.8,29.95,ENE,73,3.0,3.0,20,0.00,,,0.00,390,Wunderground v.1.15,2013-04-10 19:19:00,
2013-04-10 12:29:00,61.1,19.7,29.95,West,268,5.0,11.0,20,0.00,,,0.00,1136,Wunderground v.1.15,2013-04-10 19:29:00,
2013-04-10 12:39:00,61.2,20.9,29.95,West,271,5.0,5.0,21,0.00,,,0.00,1195,Wunderground v.1.15,2013-04-10 19:39:00,
2013-04-10 12:49:00,62.0,21.6,29.95,WSW,250,6.0,6.0,21,0.00,,,0.00,1241,Wunderground v.1.15,2013-04-10 19:49:00,
2013-04-10 12:59:00,62.0,21.6,29.94,NW,304,6.0,13.0,21,0.00,,,0.00,410,Wunderground v.1.15,2013-04-10 19:59:00,
2013-04-10 13:09:00,60.6,21.5,29.94,WNW,286,4.0,11.0,22,0.00,,,0.00,360,Wunderground v.1.15,2013-04-10 20:09:00,
2013-04-10 13:19:00,62.1,21.7,29.94,NW,321,6.0,6.0,21,0.00,,,0.00,410,Wunderground v.1.15,2013-04-10 20:19:00,
2013-04-10 13:29:00,61.8,21.4,29.93,West,259,2.0,2.0,21,0.00,,,0.00,411,Wunderground v.1.15,2013-04-10 20:29:00,
2013-04-10 13:40:00,61.5,21.2,29.93,NW,309,4.0,4.0,21,0.00,,,0.00,1025,Wunderground v.1.15,2013-04-10 20:40:00,
2013-04-10 13:50:00,62.7,21.0,29.92,WNW,285,3.0,11.0,20,0.00,,,0.00,918,Wunderground v.1.15,2013-04-10 20:50:00,
2013-04-10 13:59:00,64.0,20.9,29.92,WNW,285,4.0,4.0,19,0.00,,,0.00,921,Wunderground v.1.15,2013-04-10 20:59:00,
2013-04-10 14:09:00,63.2,21.4,29.91,WNW,297,6.0,11.0,20,0.00,,,0.00,886,Wunderground v.1.15,2013-04-10 21:09:00,
2013-04-10 14:19:00,62.5,20.8,29.91,WSW,240,6.0,6.0,20,0.00,,,0.00,202,Wunderground v.1.15,2013-04-10 21:19:00,
2013-04-10 14:29:00,62.3,21.8,29.91,NW,318,5.0,5.0,21,0.00,,,0.00,826,Wunderground v.1.15,2013-04-10 21:29:00,
2013-04-10 14:39:00,63.2,22.6,29.91,WNW,301,4.0,4.0,21,0.00,,,0.00,865,Wunderground v.1.15,2013-04-10 21:39:00,
2013-04-10 14:49:00,64.1,23.3,29.91,West,280,3.0,11.0,21,0.00,,,0.00,856,Wunderground v.1.15,2013-04-10 21:49:00,
2013-04-10 14:59:00,63.0,22.4,29.90,NW,306,11.0,12.0,21,0.00,,,0.00,814,Wunderground v.1.15,2013-04-10 21:59:00,
2013-04-10 15:09:00,62.9,22.3,29.90,NW,317,9.0,10.0,21,0.00,,,0.00,276,Wunderground v.1.15,2013-04-10 22:09:00,
2013-04-10 15:19:00,63.6,22.9,29.90,NNW,335,4.0,12.0,21,0.00,,,0.00,745,Wunderground v.1.15,2013-04-10 22:19:00,
2013-04-10 15:30:00,63.8,21.9,29.90,WNW,287,8.0,8.0,20,0.00,,,0.00,174,Wunderground v.1.15,2013-04-10 22:30:00,
2013-04-10 15:39:00,63.0,22.4,29.89,West,273,5.0,5.0,21,0.00,,,0.00,179,Wunderground v.1.15,2013-04-10 22:39:00,
2013-04-10 15:49:00,62.5,22.0,29.89,WNW,298,6.0,11.0,21,0.00,,,0.00,694,Wunderground v.1.15,2013-04-10 22:49:00,
2013-04-10 15:59:00,63.5,22.8,29.89,WNW,294,8.0,14.0,21,0.00,,,0.00,615,Wunderground v.1.15,2013-04-10 22:59:00,
2013-04-10 16:09:00,64.0,22.1,29.89,WNW,287,7.0,19.0,20,0.00,,,0.00,550,Wunderground v.1.15,2013-04-10 23:09:00,
2013-04-10 16:19:00,63.6,22.9,29.89,NW,312,9.0,9.0,21,0.00,,,0.00,536,Wunderground v.1.15,2013-04-10 23:19:00,
2013-04-10 16:30:00,63.2,22.6,29.89,WNW,302,8.0,19.0,21,0.00,,,0.00,469,Wunderground v.1.15,2013-04-10 23:30:00,
2013-04-10 16:40:00,63.5,22.8,29.89,NW,322,8.0,8.0,21,0.00,,,0.00,429,Wunderground v.1.15,2013-04-10 23:40:00,
2013-04-10 16:50:00,62.9,23.4,29.90,NW,306,10.0,19.0,22,0.00,,,0.00,385,Wunderground v.1.15,2013-04-10 23:50:00,
2013-04-10 17:00:00,62.9,22.3,29.89,West,270,7.0,7.0,21,0.00,,,0.00,348,Wunderground v.1.15,2013-04-11 00:00:00,
2013-04-10 17:10:00,63.0,22.4,29.89,NW,309,7.0,7.0,21,0.00,,,0.00,306,Wunderground v.1.15,2013-04-11 00:10:00,
2013-04-10 17:20:00,62.7,23.3,29.89,NNE,19,5.0,11.0,22,0.00,,,0.00,269,Wunderground v.1.15,2013-04-11 00:20:00,
2013-04-10 17:30:00,61.7,23.5,29.89,NW,308,11.0,18.0,23,0.00,,,0.00,225,Wunderground v.1.15,2013-04-11 00:30:00,
2013-04-10 17:40:00,60.7,22.6,29.90,WNW,299,12.0,15.0,23,0.00,,,0.00,179,Wunderground v.1.15,2013-04-11 00:40:00,
2013-04-10 17:50:00,60.1,23.1,29.91,NW,313,13.0,13.0,24,0.00,,,0.00,137,Wunderground v.1.15,2013-04-11 00:50:00,
2013-04-10 18:00:00,59.6,22.7,29.91,NW,322,11.0,13.0,24,0.00,,,0.00,97,Wunderground v.1.15,2013-04-11 01:00:00,
2013-04-10 18:10:00,59.0,23.2,29.91,NNW,333,10.0,18.0,25,0.00,,,0.00,62,Wunderground v.1.15,2013-04-11 01:10:00,
2013-04-10 18:20:00,58.5,22.8,29.92,North,355,10.0,18.0,25,0.00,,,0.00,33,Wunderground v.1.15,2013-04-11 01:20:00,
2013-04-10 18:30:00,57.7,23.0,29.92,NNW,337,10.0,18.0,26,0.00,,,0.00,16,Wunderground v.1.15,2013-04-11 01:30:00,
2013-04-10 18:40:00,56.9,22.3,29.93,NNW,337,11.0,11.0,26,0.00,,,0.00,9,Wunderground v.1.15,2013-04-11 01:40:00,
2013-04-10 18:50:00,56.3,21.8,29.93,NW,324,10.0,18.0,26,0.00,,,0.00,0,Wunderground v.1.15,2013-04-11 01:50:00,
2013-04-10 19:00:00,55.7,22.2,29.94,NW,309,10.0,10.0,27,0.00,,,0.00,0,Wunderground v.1.15,2013-04-11 02:00:00,
2013-04-10 19:10:00,55.3,21.8,29.94,WNW,288,10.0,10.0,27,0.00,,,0.00,0,Wunderground v.1.15,2013-04-11 02:10:00,
2013-04-10 19:20:00,54.8,21.4,29.95,NNW,331,11.0,11.0,27,0.00,,,0.00,0,Wunderground v.1.15,2013-04-11 02:20:00,
2013-04-10 19:30:00,54.4,21.1,29.96,WNW,297,10.0,10.0,27,0.00,,,0.00,0,Wunderground v.1.15,2013-04-11 02:30:00,
2013-04-10 19:40:00,54.0,21.6,29.96,NNW,327,9.0,10.0,28,0.00,,,0.00,0,Wunderground v.1.15,2013-04-11 02:40:00,
2013-04-10 19:50:00,53.5,21.2,29.96,NW,315,7.0,8.0,28,0.00,,,0.00,0,Wunderground v.1.15,2013-04-11 02:50:00,
2013-04-10 20:00:00,53.1,21.6,29.97,NW,321,6.0,10.0,29,0.00,,,0.00,0,Wunderground v.1.15,2013-04-11 03:00:00,
2013-04-10 20:10:00,52.8,21.4,29.97,NW,307,6.0,18.0,29,0.00,,,0.00,0,Wunderground v.1.15,2013-04-11 03:10:00,
2013-04-10 20:20:00,52.4,21.8,29.97,WNW,296,5.0,18.0,30,0.00,,,0.00,0,Wunderground v.1.15,2013-04-11 03:20:00,
2013-04-10 20:30:00,52.0,21.5,29.98,NW,315,6.0,6.0,30,0.00,,,0.00,0,Wunderground v.1.15,2013-04-11 03:30:00,
2013-04-10 20:40:00,51.7,22.0,29.98,WNW,287,8.0,18.0,31,0.00,,,0.00,0,Wunderground v.1.15,2013-04-11 03:40:00,